contact:dominique.lefevre@mio.osupytheas.fr, maurice.libes@osupytheas.fr
Project:EMSO Ligure-ouest http://www.emso-fr.org/EMSO-France
Sensor Aquadopp, line 13 Serial AQD14315 
DOI : "https://doi.org/10.17882/74513; https://doi.org/10.17882/83244" 
Title:EMSO Ligure Ouest : Data ligne ALBATROSS capteur AQUADOPP - deploiement 2021
Id,Date,Profondeur,Latitude,Longitude,X_East,Y_North,Z_Up,Amplitude_X,Amplitude_Y,Amplitude_Z,Batterie,SoundSpeed,Heading,Pitch,Roll,Pressure,Temperature,Speed,Direction
, , m, degrees North, degrees East, m.s-1, m.s-1,m.s-1, 1, 1, 1, Volt, m.s-1, degree, degree, degree, dbar, degree_C, m.s-1, degree
09,2022-07-02T23:30:00,2000.0,42.79,6.0312,0.0,-0.03,0.009,79.0,78.0,78.0,13.4,1504.7,162.9,-0.9,1.0,1992.717,13.29,0.03,180.0
09,2022-07-03T00:00:00,2000.0,42.79,6.0312,-0.016,-0.026,-0.012,82.0,75.0,79.0,13.4,1504.7,169.1,-0.9,1.0,1992.751,13.28,0.03,211.6
09,2022-07-03T00:30:00,2000.0,42.79,6.0312,-0.009,-0.037,-0.015,77.0,76.0,77.0,13.4,1504.7,172.4,-1.0,1.1,1992.713,13.28,0.038,193.7
09,2022-07-03T01:00:00,2000.0,42.79,6.0312,-0.007,-0.044,-0.008,77.0,75.0,79.0,13.4,1504.7,170.1,-0.7,1.0,1992.706,13.28,0.044,189.0
09,2022-07-03T02:00:00,2000.0,42.79,6.0312,-0.011,-0.066,-0.021,79.0,73.0,78.0,13.4,1504.7,163.5,-0.7,1.0,1992.668,13.28,0.066,189.5
09,2022-07-03T02:30:00,2000.0,42.79,6.0312,-0.014,-0.051,0.018,76.0,72.0,77.0,13.4,1504.7,163.3,-0.8,1.0,1992.627,13.28,0.052,195.3
09,2022-07-03T03:00:00,2000.0,42.79,6.0312,-0.016,-0.035,0.014,75.0,73.0,77.0,13.4,1504.7,170.5,-0.8,1.0,1992.591,13.28,0.038,204.6
09,2022-07-03T03:30:00,2000.0,42.79,6.0312,-0.022,-0.049,-0.023,76.0,74.0,74.0,13.4,1504.7,169.1,-0.7,1.0,1992.636,13.28,0.053,204.2
09,2022-07-03T04:00:00,2000.0,42.79,6.0312,-0.022,-0.044,0.006,76.0,74.0,76.0,13.4,1504.7,164.6,-0.9,1.0,1992.638,13.28,0.049,206.6
09,2022-07-03T04:30:00,2000.0,42.79,6.0312,-0.02,-0.052,-0.012,79.0,72.0,77.0,13.4,1504.7,165.7,-0.6,1.1,1992.577,13.28,0.055,201.0
09,2022-07-03T05:00:00,2000.0,42.79,6.0312,-0.027,-0.049,-0.025,75.0,71.0,75.0,13.4,1504.7,162.5,-1.0,1.0,1992.637,13.28,0.055,208.9
09,2022-07-03T05:30:00,2000.0,42.79,6.0312,-0.017,-0.031,0.008,77.0,73.0,76.0,13.4,1504.7,161.8,-0.9,1.0,1992.606,13.28,0.035,208.7
09,2022-07-03T06:00:00,2000.0,42.79,6.0312,-0.03,-0.06,-0.027,75.0,74.0,77.0,13.4,1504.7,145.4,-0.2,1.1,1992.645,13.28,0.067,206.6
09,2022-07-03T06:30:00,2000.0,42.79,6.0312,-0.017,-0.034,-0.029,74.0,72.0,75.0,13.4,1504.7,152.7,-0.3,1.1,1992.686,13.28,0.038,206.6
09,2022-07-03T07:00:00,2000.0,42.79,6.0312,-0.009,-0.054,0.006,76.0,73.0,75.0,13.4,1504.7,147.2,-0.6,1.1,1992.659,13.28,0.054,189.5
09,2022-07-03T07:30:00,2000.0,42.79,6.0312,-0.022,-0.046,-0.015,72.0,72.0,74.0,13.4,1504.7,148.1,-1.3,1.0,1992.655,13.28,0.05,205.6
09,2022-07-03T08:00:00,2000.0,42.79,6.0312,-0.02,-0.039,0.004,77.0,74.0,73.0,13.4,1504.7,156.9,-1.3,1.0,1992.687,13.28,0.043,207.1
09,2022-07-03T08:30:00,2000.0,42.79,6.0312,-0.018,-0.055,-0.002,78.0,71.0,77.0,13.4,1504.7,154.1,-1.1,1.0,1992.702,13.29,0.057,198.1
09,2022-07-03T09:00:00,2000.0,42.79,6.0312,-0.005,-0.067,-0.009,78.0,74.0,77.0,13.4,1504.7,154.6,-0.3,1.1,1992.659,13.29,0.067,184.3
09,2022-07-03T09:30:00,2000.0,42.79,6.0312,-0.017,-0.047,-0.004,75.0,71.0,75.0,13.4,1504.7,162.7,-0.5,1.1,1992.697,13.29,0.049,199.9
09,2022-07-03T10:00:00,2000.0,42.79,6.0312,-0.009,-0.056,-0.034,78.0,74.0,75.0,13.4,1504.7,168.5,-1.1,1.1,1992.731,13.29,0.056,189.1
09,2022-07-03T10:30:00,2000.0,42.79,6.0312,-0.006,-0.058,-0.006,77.0,72.0,74.0,13.4,1504.7,172.5,-1.2,1.0,1992.638,13.29,0.058,185.9
09,2022-07-03T11:00:00,2000.0,42.79,6.0312,-0.012,-0.053,-0.003,77.0,73.0,79.0,13.4,1504.7,168.2,-0.6,1.1,1992.683,13.29,0.054,192.8
09,2022-07-03T11:30:00,2000.0,42.79,6.0312,-0.037,-0.056,0.007,75.0,74.0,76.0,13.4,1504.7,169.3,-1.2,1.0,1992.623,13.29,0.067,213.5
09,2022-07-03T12:00:00,2000.0,42.79,6.0312,-0.019,-0.052,-0.015,76.0,75.0,77.0,13.4,1504.7,168.7,-0.6,1.1,1992.659,13.29,0.055,200.1
09,2022-07-03T12:30:00,2000.0,42.79,6.0312,-0.023,-0.08,-0.008,77.0,72.0,74.0,13.4,1504.7,175.2,-0.9,1.0,1992.666,13.29,0.083,196.0
09,2022-07-03T13:00:00,2000.0,42.79,6.0312,-0.004,-0.04,0.006,77.0,73.0,76.0,13.4,1504.7,173.1,-0.7,1.0,1992.625,13.29,0.04,185.7
09,2022-07-03T13:30:00,2000.0,42.79,6.0312,-0.01,-0.067,0.005,76.0,71.0,74.0,13.4,1504.7,173.0,-0.8,1.0,1992.596,13.29,0.067,188.5
09,2022-07-03T14:00:00,2000.0,42.79,6.0312,-0.022,-0.073,0.003,75.0,72.0,77.0,13.4,1504.7,171.8,-1.2,0.9,1992.596,13.28,0.076,196.8
09,2022-07-03T15:00:00,2000.0,42.79,6.0312,0.002,-0.045,0.003,74.0,73.0,74.0,13.4,1504.7,167.2,-0.8,1.0,1992.547,13.28,0.045,177.5
09,2022-07-03T15:30:00,2000.0,42.79,6.0312,-0.017,-0.058,-0.006,77.0,72.0,74.0,13.4,1504.7,164.5,-1.2,0.9,1992.571,13.28,0.06,196.3
09,2022-07-03T16:00:00,2000.0,42.79,6.0312,-0.015,-0.056,0.004,75.0,71.0,73.0,13.4,1504.7,162.1,-0.5,1.1,1992.562,13.28,0.057,195.0
09,2022-07-03T16:30:00,2000.0,42.79,6.0312,0.009,-0.055,-0.007,75.0,67.0,73.0,13.4,1504.7,163.8,-1.0,1.0,1992.573,13.29,0.055,170.7
09,2022-07-03T17:00:00,2000.0,42.79,6.0312,-0.008,-0.049,-0.002,74.0,69.0,72.0,13.4,1504.7,156.0,-1.2,0.9,1992.584,13.29,0.049,189.3
09,2022-07-03T17:30:00,2000.0,42.79,6.0312,-0.019,-0.058,-0.035,75.0,68.0,70.0,13.4,1504.7,167.8,-1.1,1.0,1992.563,13.29,0.061,198.1
09,2022-07-03T18:00:00,2000.0,42.79,6.0312,-0.01,-0.043,-0.006,73.0,72.0,73.0,13.4,1504.7,146.6,-0.6,1.2,1992.598,13.29,0.044,193.1
09,2022-07-03T18:30:00,2000.0,42.79,6.0312,-0.003,-0.065,0.026,73.0,69.0,74.0,13.4,1504.7,158.6,-1.0,0.9,1992.612,13.29,0.065,182.6
09,2022-07-03T19:00:00,2000.0,42.79,6.0312,0.008,-0.06,-0.024,73.0,71.0,72.0,13.4,1504.7,149.8,-1.1,1.1,1992.648,13.29,0.06,172.4
09,2022-07-03T19:30:00,2000.0,42.79,6.0312,0.007,-0.069,-0.004,74.0,73.0,74.0,13.4,1504.7,154.6,-0.8,1.0,1992.688,13.29,0.069,174.2
09,2022-07-03T20:00:00,2000.0,42.79,6.0312,0.017,-0.049,-0.024,74.0,73.0,72.0,13.4,1504.7,144.3,-0.7,1.0,1992.752,13.29,0.051,160.9
09,2022-07-03T20:30:00,2000.0,42.79,6.0312,0.022,-0.05,-0.009,76.0,72.0,75.0,13.4,1504.7,145.5,-1.4,1.0,1992.748,13.29,0.054,156.3
09,2022-07-03T21:00:00,2000.0,42.79,6.0312,0.021,-0.058,0.001,76.0,74.0,75.0,13.4,1504.7,153.3,-0.9,1.0,1992.765,13.29,0.061,160.1
09,2022-07-03T21:30:00,2000.0,42.79,6.0312,0.012,-0.075,-0.01,76.0,71.0,76.0,13.4,1504.7,155.7,-1.2,1.2,1992.765,13.29,0.075,170.9
09,2022-07-03T22:00:00,2000.0,42.79,6.0312,0.02,-0.075,-0.01,80.0,72.0,74.0,13.4,1504.7,153.2,-0.8,1.2,1992.759,13.29,0.077,165.1
09,2022-07-03T22:30:00,2000.0,42.79,6.0312,-0.01,-0.083,-0.012,77.0,71.0,75.0,13.4,1504.7,172.2,-1.0,0.9,1992.755,13.29,0.083,186.9
09,2022-07-03T23:00:00,2000.0,42.79,6.0312,0.011,-0.065,-0.049,74.0,71.0,71.0,13.4,1504.7,164.8,-0.5,1.1,1992.76,13.29,0.065,170.4
